User: anonymous   Login
Location: Stonelick Lake State Park
(39.2170°N, 84.0850°W)
Time: 13:46:13
(UTC-05:00)
Language:

Lacrosse 5 - Orbit

View from above orbital plane
View from above orbital plane
View from above satellite
View from above satellite

Ground track
Ground track

The orbit data is extracted from the following two-line orbital elements,

1 28646U 05016A   15061.80091666 0.00000000  00000-0  00000-0 0    00
2 28646  57.0110  11.3514 0008000 127.8816 232.1184 14.52027741    02
Epoch (UTC): 02 March 2015 19:13:19
Eccentricity: 0.0008000
inclination: 57.0110°
perigee height: 713 km
apogee height: 725 km
right ascension of ascending node: 11.3514°
argument of perigee: 127.8816°
revolutions per day: 14.52027741
mean anomaly at epoch: 232.1184°
orbit number at epoch: 0

The dashed part of the orbit path shows where the satellite is in the earth's shadow,  

DLR